Regional Weather Roundup
Issued by NWS

Home | Current Version | Previous Version | Text Only | Print | Product List | Glossary On
Versions: 1 2 3 4 5 6 7 8 9 10 11 12 13 14 15 16 17 18 19 20 21 22 23 24 25 26 27 28 29 30 31 32 33 34 35 36 37 38 39 40 41 42 43 44 45 46 47 48 49 50
000
ASCA44 KEWX 221620
RWRMX

LATIN AMERICA AND CARIBBEAN REGIONAL WEATHER ROUNDUP
NATIONAL WEATHER SERVICE AUSTIN/SAN ANTONIO TX
1100 AM CDT TUE JUL 22 2014

NOTE: "FAIR" INDICATED FEW OR NO CLOUDS BELOW 12,000 FEET WITH NO
SIGNIFICANT WEATHER AND/OR OBSTRUCTIONS TO VISIBILITY.

BAJA CALIFORNIA

CITY           SKY/WX    TMP DP  RH WIND       PRES   REMARKS
LORETO         MOSUNNY   91  75  59 CALM      29.87S HX 102
LA PAZ         MOSUNNY   90  55  31 S6        29.91
MEXICALI       SUNNY     90  55  31 NW5       29.92
S.J. DEL CABO  SUNNY     93  59  31 NE3       29.90S HX  92
TIJUANA        MOSUNNY   70  59  68 NW7       30.08S

NORTHWESTERN MEXICO

CITY           SKY/WX    TMP DP  RH WIND       PRES   REMARKS
CULIACAN       MOSUNNY   90  75  62 NE6       29.89  HX 100
DURANGO        MOSUNNY   75  54  46 MISG      30.35S
GUAYMAS        MOSUNNY   95  77  55 N6        29.83  HX 109
HERMOSILLO     CLOUDY    90  70  51 CALM      29.94  HX  95
CD. JUAREZ     PTSUNNY   86  50  28 S12       30.12
LOS MOCHIS     PTSUNNY   91  73  55 E5        29.89S HX 100
OBREGON        PTSUNNY   88  77  70 CALM      29.86  HX 100

NORTHEASTERN MEXICO

CITY           SKY/WX    TMP DP  RH WIND       PRES   REMARKS
CHIHUAHUA      PTSUNNY   81  54  39 CALM      30.23
MATAMOROS      PTSUNNY   90  79  70 SE17      30.02  HX 105
MONCLOVA       PTSUNNY   84  55  37 CALM      30.04S
MONTERREY      MOSUNNY   86  70  58 CALM      30.03R HX  90
NUEVO LAREDO   PTSUNNY   90  75  62 SE6       30.02  HX 100
PIEDRAS NEGRAS MOSUNNY   84  73  70 SE7       30.05S HX  91
REYNOSA        MOSUNNY   88  68  51 E17       30.01  HX  91
SALTILLO       MOSUNNY   82  64  54 N7        30.26S
TORREON        PTSUNNY   81  61  50 CALM      30.18S
CD. VICTORIA   SUNNY     86  70  58 S15       30.00  HX  90

WESTERN MEXICO

CITY           SKY/WX    TMP DP  RH WIND       PRES   REMARKS
AGUASCALIENTES SUNNY     70  45  40 NE9       30.35
COLIMA         MOSUNNY   84  73  70 CALM      30.05S HX  91
DEL BAJIO      SUNNY     73  54  49 S3        30.35F
GUADALAJARA    SUNNY     75  57  53 CALM      30.24
MANZANILLO     SUNNY     90  77  66 SE12      29.88R HX 102
MAZATLAN       SUNNY     86  72  62 NW9       29.87S HX  92
P. VALLARTA    SUNNY     90  73  58 CALM      29.90R HX  98
URUAPAN        SUNNY     73  63  68 CALM      30.24S
ZACATECAS      SUNNY     72  43  35 CALM      30.39S

CENTRAL MEXICO

CITY           SKY/WX    TMP DP  RH WIND       PRES   REMARKS
CUERNAVACA     SUNNY     75  59  57 SE2       30.21S
MEXICO CITY    SUNNY     70  50  49 N6        30.39S
MORELIA        SUNNY     70  59  68 CALM      30.30
POZA RICA      MOSUNNY   88  75  66 E7        30.06F HX  97
PUEBLA         SUNNY     70  46  43 N5        30.40F
QUERETARO      MOSUNNY   70  54  56 E6        30.37S
S. LUIS POTOSI SUNNY     68  54  60 CALM      30.35F
TAMPICO        MOSUNNY   86  73  66 S8        30.02S HX  93
TOLUCA         SUNNY     63  48  59 NW6       30.46F

SOUTHERN MEXICO

CITY           SKY/WX    TMP DP  RH WIND       PRES   REMARKS
ACAPULCO       SUNNY     88  79  74 W6        29.88R HX 102
B. DE HUATULCO   N/A     90  75  62 CALM      29.93  HX 100
OAXACA         SUNNY     72  52  49 N6        30.29S
P. ESCONDIDO   SUNNY     90  75  62 W8        30.01S HX 100
VERACRUZ       MOSUNNY   86  73  66 E8        30.01R HX  93
ZIHUATANEJO    MOSUNNY   86  73  66 CALM      29.90S HX  93

YUCATAN PENINSULA

CITY           SKY/WX    TMP DP  RH WIND       PRES   REMARKS
CAMPECHE       MOSUNNY   88  77  70 E13       29.99S HX 100
CANCUN         SUNNY     88  75  66 E7        30.04S HX  97
CHETUMAL       MOSUNNY   86  75  70 E12       30.00S HX  95
CD. DEL CARMEN MOSUNNY   84  75  74 SE17      29.99  HX  92
COZUMEL        PTSUNNY   84  75  74 NE8       30.04S HX  92
MERIDA         PTSUNNY   88  73  62 E9        30.03F HX  96
MINATITLAN     PTSUNNY   86  73  66 N9        29.97  HX  93
TAPACHULA      PTSUNNY   88  79  74 W6        29.89R HX 102
TUX. GUTIERREZ MOSUNNY   84  70  61 N6        30.00F
VILLAHERMOSA   SUNNY     88  75  66 NE5       29.98F HX  97

CENTRAL AMERICA

CITY           SKY/WX    TMP DP  RH WIND       PRES   REMARKS
BELIZE CITY    MOSUNNY   88  77  70 E13       30.00R HX 100
MANAGUA        MOSUNNY   88  73  62 E9        29.83F HX  96

CARIBBEAN

CITY           SKY/WX    TMP DP  RH WIND       PRES   REMARKS
ARUBA          MOSUNNY   90  77  66 E20       29.94S HX 102
CURACAO        MOSUNNY   90  75  62 E17       29.97F HX 100
KINGSTON       MOSUNNY   90  75  62 SE18      29.97S HX 100
NASSAU         MOSUNNY   88  75  66 S12       30.10  HX  97
SAN JUAN       MOSUNNY   88  75  66 NE18      30.08S HX  97
SANTO DOMINGO  MOSUNNY   88  77  70 SE12      30.03F HX 100
ST. CROIX      PTSUNNY   84  75  74 SE16G25   30.09S HX  92
ST. KITTS      MOSUNNY   88  73  62 E13       30.06S HX  96
ST. MAARTEN    MOSUNNY   86  73  66 E15       30.06F HX  93
ST. THOMAS     MOSUNNY   86  75  70 SE18G24   30.08S HX  95

$$



USA.gov is the U.S. government's official web portal to all federal, state and local government web resources and services.